Total_Precipitation_Accumulation
0.16 0.23 0.29 0.32 0.26 0.21 0.17 0.21 0.34 0.32 0.36 0.45 0.54 0.54 0.63 0.67 0.60 0.59 0.51 0.50 0.49 0.51 0.54 0.58 0.58 0.54 0.51 0.47 0.49 0.56 0.67 0.76 0.87 0.85 0.84 0.82 0.76 0.70 0.72 0.79 0.77 0.90 1.00 1.04
0.15 0.17 0.22 0.25 0.25 0.18 0.13 0.12 0.15 0.27 0.44 0.47 0.49 0.53 0.55 0.55 0.57 0.57 0.61 0.65 0.64 0.61 0.62 0.55 0.52 0.45 0.43 0.42 0.46 0.54 0.64 0.68 0.77 0.78 0.72 0.67 0.66 0.62 0.62 0.69 0.77 0.86 0.87 0.95
0.24 0.20 0.26 0.30 0.25 0.19 0.14 0.12 0.14 0.30 0.55 0.51 0.50 0.54 0.59 0.64 0.69 0.58 0.55 0.57 0.60 0.56 0.54 0.44 0.42 0.42 0.42 0.46 0.48 0.51 0.59 0.67 0.74 0.80 0.78 0.66 0.59 0.66 0.67 0.74 0.80 0.83 0.82 0.84
0.34 0.40 0.55 0.37 0.23 0.20 0.21 0.20 0.20 0.25 0.34 0.41 0.51 0.53 0.48 0.52 0.63 0.62 0.57 0.60 0.58 0.53 0.52 0.48 0.44 0.43 0.41 0.40 0.42 0.47 0.54 0.61 0.66 0.73 0.74 0.74 0.73 0.76 0.82 0.88 0.92 0.92 0.85 0.86
0.46 0.55 0.48 0.40 0.33 0.31 0.35 0.35 0.32 0.40 0.37 0.41 0.47 0.49 0.50 0.41 0.44 0.44 0.54 0.55 0.56 0.56 0.60 0.59 0.53 0.56 0.57 0.53 0.55 0.60 0.64 0.71 0.70 0.73 0.80 0.85 0.86 0.88 0.95 1.00 1.00 1.02 0.98 0.97
0.59 0.73 0.74 0.62 0.50 0.44 0.46 0.73 0.55 0.54 0.55 0.57 0.57 0.67 0.74 0.51 0.37 0.39 0.48 0.52 0.55 0.48 0.41 0.49 0.54 0.63 0.71 0.76 0.77 0.83 0.90 0.95 0.96 1.01 1.05 1.02 1.12 1.21 1.23 1.24 1.15 1.16 1.15 1.13
0.76 0.88 0.90 0.70 0.59 0.52 0.87 1.03 0.64 0.61 0.67 0.66 0.69 0.76 0.72 0.59 0.46 0.50 0.43 0.45 0.47 0.48 0.42 0.46 0.54 0.67 0.83 0.94 0.93 1.00 1.06 1.15 1.25 1.33 1.45 1.52 1.64 1.60 1.53 1.51 1.48 1.39 1.29 1.23
1.08 1.21 1.12 0.72 0.68 0.92 1.09 0.87 0.87 0.75 0.68 0.65 0.61 0.68 0.70 0.65 0.55 0.45 0.45 0.45 0.48 0.54 0.48 0.50 0.58 0.70 0.82 0.95 1.08 1.22 1.29 1.42 1.51 1.63 1.66 1.74 2.06 2.12 2.14 2.06 1.82 1.64 1.57 1.46
1.15 1.20 0.95 0.80 0.94 0.99 0.97 0.98 1.02 0.96 0.76 0.68 0.60 0.60 0.64 0.57 0.45 0.35 0.35 0.40 0.44 0.55 0.59 0.59 0.69 0.89 1.08 1.09 1.19 1.36 1.48 1.63 1.73 1.80 1.89 1.99 2.12 2.18 2.22 2.19 1.96 1.78 1.77 1.72
1.16 1.21 1.04 0.91 0.87 0.95 0.92 0.88 0.91 0.89 0.95 0.94 0.78 0.66 0.67 0.59 0.47 0.38 0.36 0.39 0.42 0.53 0.66 0.83 0.93 1.08 1.28 1.26 1.34 1.49 1.58 1.66 1.74 1.83 1.91 2.02 2.13 2.08 2.04 2.01 1.96 1.89 1.87 1.86
1.33 1.27 1.15 1.04 1.00 1.14 1.11 0.98 1.01 0.97 0.99 1.05 0.85 0.67 0.58 0.54 0.52 0.49 0.50 0.53 0.53 0.61 0.77 0.99 1.15 1.26 1.33 1.36 1.50 1.64 1.67 1.74 1.82 1.84 1.86 1.96 2.00 2.05 1.96 1.88 1.82 1.84 1.86 1.90
1.37 1.27 1.37 1.26 1.06 1.14 1.21 1.07 1.13 1.11 1.02 0.85 0.76 0.70 0.62 0.58 0.56 0.56 0.58 0.59 0.63 0.71 0.82 0.99 1.16 1.34 1.45 1.55 1.65 1.76 1.81 1.76 1.82 1.89 1.94 1.98 1.95 1.81 1.68 1.59 1.47 1.44 1.50 1.55
1.05 1.02 1.16 1.12 1.07 1.16 1.28 1.16 0.97 0.91 0.91 0.80 0.68 0.62 0.58 0.54 0.51 0.52 0.56 0.58 0.64 0.74 0.82 0.92 1.04 1.24 1.45 1.68 1.84 1.93 1.98 1.99 1.98 2.05 2.14 2.14 2.10 2.01 1.90 1.70 1.50 1.35 1.25 1.22
0.88 0.86 0.95 0.98 1.12 1.09 1.11 1.06 0.85 0.75 0.71 0.66 0.61 0.60 0.56 0.48 0.43 0.43 0.50 0.56 0.63 0.72 0.83 0.92 1.02 1.16 1.34 1.58 1.76 1.91 1.96 2.02 2.02 2.04 2.09 2.08 2.03 2.02 2.00 1.89 1.76 1.55 1.31 1.18
0.94 0.87 0.92 0.96 0.99 1.00 0.98 0.89 0.83 0.73 0.63 0.58 0.53 0.55 0.57 0.52 0.47 0.47 0.47 0.49 0.56 0.65 0.79 0.96 1.09 1.15 1.25 1.37 1.48 1.63 1.75 1.84 1.90 1.88 1.88 1.93 1.92 1.88 1.88 1.86 1.76 1.60 1.39 1.27
1.03 0.99 0.98 0.96 0.93 0.88 0.83 0.78 0.77 0.73 0.62 0.63 0.61 0.51 0.50 0.54 0.54 0.52 0.50 0.52 0.61 0.69 0.80 1.00 1.08 1.18 1.39 1.51 1.56 1.64 1.73 1.80 1.83 1.77 1.65 1.61 1.62 1.65 1.61 1.62 1.62 1.52 1.39 1.26
1.11 1.13 1.07 1.02 0.93 0.94 0.93 0.87 0.81 0.71 0.63 0.64 0.67 0.58 0.50 0.47 0.51 0.51 0.52 0.53 0.58 0.65 0.78 0.97 1.03 1.07 1.27 1.51 1.64 1.65 1.61 1.57 1.59 1.58 1.50 1.41 1.43 1.51 1.54 1.56 1.52 1.42 1.29 1.15
1.06 1.04 0.99 0.96 0.95 0.97 0.92 0.83 0.76 0.70 0.64 0.60 0.62 0.61 0.56 0.52 0.53 0.55 0.54 0.55 0.58 0.60 0.66 0.76 0.88 0.97 1.07 1.26 1.44 1.52 1.53 1.48 1.39 1.36 1.35 1.28 1.22 1.27 1.34 1.36 1.27 1.18 1.09 0.97
0.89 0.83 0.79 0.78 0.84 0.93 0.92 0.78 0.70 0.67 0.64 0.62 0.62 0.63 0.58 0.55 0.53 0.53 0.54 0.60 0.72 0.79 0.73 0.72 0.85 0.88 0.97 1.12 1.27 1.29 1.36 1.42 1.34 1.18 1.15 1.22 1.15 1.13 1.07 1.03 0.96 0.91 0.84 0.80
0.82 0.76 0.73 0.81 0.87 0.95 0.98 0.84 0.73 0.70 0.67 0.65 0.63 0.61 0.59 0.57 0.57 0.59 0.62 0.70 0.79 0.87 0.83 0.78 0.72 0.71 0.85 1.06 1.17 1.13 1.12 1.19 1.18 1.09 1.05 1.08 1.06 1.02 0.90 0.85 0.80 0.78 0.76 0.73
0.84 0.80 0.78 0.82 0.88 0.88 0.84 0.77 0.73 0.71 0.66 0.60 0.59 0.59 0.59 0.55 0.54 0.63 0.78 0.85 0.77 0.79 0.79 0.78 0.71 0.69 0.72 0.91 0.99 1.01 1.00 1.01 1.04 1.00 0.98 0.99 0.97 0.93 0.84 0.83 0.79 0.75 0.68 0.65
0.78 0.78 0.76 0.75 0.73 0.70 0.64 0.59 0.55 0.54 0.50 0.46 0.47 0.51 0.56 0.56 0.52 0.57 0.64 0.76 0.80 0.84 0.77 0.74 0.71 0.69 0.67 0.76 0.81 0.91 0.97 0.90 0.86 0.82 0.82 0.82 0.85 0.84 0.76 0.72 0.68 0.60 0.56 0.55
0.59 0.56 0.57 0.56 0.54 0.52 0.48 0.45 0.45 0.46 0.44 0.44 0.48 0.56 0.66 0.65 0.62 0.71 0.70 0.63 0.70 0.71 0.68 0.67 0.67 0.65 0.59 0.61 0.72 0.80 0.89 0.89 0.86 0.78 0.73 0.71 0.69 0.67 0.64 0.60 0.55 0.52 0.53 0.52
0.44 0.43 0.44 0.42 0.41 0.45 0.49 0.47 0.42 0.40 0.39 0.41 0.41 0.49 0.69 0.80 0.75 0.70 0.68 0.65 0.60 0.54 0.51 0.52 0.47 0.47 0.50 0.52 0.62 0.70 0.79 0.82 0.82 0.75 0.68 0.64 0.58 0.57 0.61 0.60 0.53 0.49 0.49 0.47
0.40 0.37 0.39 0.43 0.48 0.55 0.57 0.52 0.46 0.43 0.46 0.46 0.43 0.49 0.66 0.79 0.87 0.78 0.66 0.58 0.53 0.47 0.46 0.44 0.41 0.44 0.46 0.50 0.59 0.69 0.77 0.78 0.78 0.73 0.64 0.59 0.53 0.53 0.56 0.56 0.51 0.46 0.43 0.41
0.44 0.43 0.48 0.52 0.57 0.65 0.65 0.63 0.63 0.61 0.63 0.67 0.66 0.69 0.74 0.73 0.75 0.74 0.66 0.55 0.48 0.49 0.49 0.47 0.44 0.44 0.48 0.56 0.61 0.66 0.73 0.74 0.72 0.68 0.58 0.54 0.50 0.51 0.56 0.54 0.49 0.47 0.42 0.37
0.50 0.50 0.55 0.61 0.68 0.72 0.70 0.71 0.77 0.81 0.87 0.95 0.99 0.92 0.89 0.84 0.78 0.69 0.59 0.50 0.45 0.46 0.48 0.46 0.43 0.42 0.47 0.57 0.64 0.68 0.69 0.69 0.64 0.59 0.57 0.55 0.52 0.53 0.56 0.53 0.49 0.44 0.38 0.35